Weather History for Crystal River, FL

Change the Weather History Date:

Thursday, November 22, 2012

  Actual Average (KBKV) Record (KBKV)
Temperature  
Mean Temperature 55 °F -  
Max Temperature 71 °F 74 °F 82 °F (1997)
Min Temperature 39 °F 49 °F 23 °F (2000)
Degree Days  
Heating Degree Days 10    
Growing Degree Days 5 (Base 50)    
Moisture  
Dew Point 38 °F    
Average Humidity 66    
Maximum Humidity 100    
Minimum Humidity 23    
Precipitation  
Precipitation 0.00 in - - ()
Sea Level Pressure  
Sea Level Pressure 30.15 in    
Wind  
Wind Speed 2 mph (NNE)    
Max Wind Speed 14 mph    
Max Gust Speed 22 mph    
Visibility 10 miles    
Events      
Averages and records for this station are not official NWS values.
T = Trace of Precipitation, MM = Missing Value Source: NWS Daily Summary

Daily Weather History Graph

Daily Weather History Graph

Search for Another Location

Airport:

Trip Planner

Search our weather history database for the weather conditions in past years. The results will help you decide how hot, cold, wet, or windy it might be!

Date:

Astronomy

Nov. 22, 2012 Rise Set
Actual Time 6:59 AM EST 5:33 PM EST
Civil Twilight 6:34 AM EST 5:58 PM EST
Nautical Twilight 6:05 AM EST 6:27 PM EST
Astronomical Twilight 5:36 AM EST 6:56 PM EST
Moon 1:57 PM EST (11/22) 1:42 AM EST (11/22)
Length of Visible Light 11h 24m
Length of Day
10h 34m
Waxing Gibbous, 71% of the Moon is Illuminated
Nov 22
Waxing Gibbous
Nov 28
Full
Dec 6
Last Quarter
Dec 13
New
Dec 20
First Quarter

Hourly Weather History & Observations

Time (EST) Temp. Windchill Dew Point Humidity Pressure Visibility Wind Dir Wind Speed Gust Speed Precip Events Conditions
12:15 AM 44.6 °F - 44.6 °F 100% 30.12 in 10.0 mi Calm Calm - N/A   Clear
12:35 AM 44.6 °F - 44.6 °F 100% 30.12 in 7.0 mi Calm Calm - N/A   Clear
12:55 AM 44.6 °F - 44.6 °F 100% 30.12 in 10.0 mi Calm Calm - N/A   Clear
1:15 AM 44.6 °F - 44.6 °F 100% 30.12 in 10.0 mi Calm Calm - N/A   Clear
1:35 AM 44.6 °F - 44.6 °F 100% 30.11 in 7.0 mi Calm Calm - N/A   Clear
1:55 AM 42.8 °F - 42.8 °F 100% 30.11 in 7.0 mi Calm Calm - N/A   Clear
2:15 AM 42.8 °F - 42.8 °F 100% 30.11 in 7.0 mi Calm Calm - N/A   Clear
2:35 AM 41.0 °F - 41.0 °F 100% 30.11 in 7.0 mi Calm Calm - N/A   Clear
2:55 AM 41.0 °F - 41.0 °F 100% 30.12 in 7.0 mi Calm Calm - N/A   Clear
3:15 AM 41.0 °F - 41.0 °F 100% 30.11 in 10.0 mi Calm Calm - N/A   Clear
3:35 AM 41.0 °F - 41.0 °F 100% 30.11 in 10.0 mi Calm Calm - N/A   Clear
3:55 AM 41.0 °F - 41.0 °F 100% 30.11 in 7.0 mi Calm Calm - N/A   Clear
4:15 AM 41.0 °F - 41.0 °F 100% 30.12 in 10.0 mi Calm Calm - N/A   Clear
4:35 AM 41.0 °F - 41.0 °F 100% 30.11 in 10.0 mi Calm Calm - N/A   Clear
4:55 AM 41.0 °F - 41.0 °F 100% 30.11 in 10.0 mi Calm Calm - N/A   Clear
5:15 AM 41.0 °F - 39.2 °F 93% 30.11 in 10.0 mi Calm Calm - N/A   Clear
5:35 AM 39.2 °F - 39.2 °F 100% 30.12 in 10.0 mi Calm Calm - N/A   Clear
5:55 AM 41.0 °F - 41.0 °F 100% 30.13 in 7.0 mi Calm Calm - N/A   Clear
6:15 AM 39.2 °F - 39.2 °F 100% 30.13 in 7.0 mi Calm Calm - N/A   Clear
6:35 AM 39.2 °F - 39.2 °F 100% 30.14 in 10.0 mi Calm Calm - N/A   Clear
6:55 AM 39.2 °F - 39.2 °F 100% 30.15 in 10.0 mi Calm Calm - N/A   Clear
7:15 AM 39.2 °F - 39.2 °F 100% 30.16 in 7.0 mi Calm Calm - N/A   Clear
7:35 AM 39.2 °F - 39.2 °F 100% 30.16 in 7.0 mi Calm Calm - N/A   Clear
7:55 AM 41.0 °F - 41.0 °F 100% 30.16 in 10.0 mi Calm Calm - N/A   Clear
8:15 AM 46.4 °F 45.2 °F 44.6 °F 93% 30.17 in 10.0 mi NE 3.5 mph - N/A   Clear
8:35 AM 51.8 °F - 42.8 °F 71% 30.18 in 10.0 mi North 3.5 mph - N/A   Clear
8:55 AM 55.4 °F - 42.8 °F 63% 30.19 in 10.0 mi North 5.8 mph - N/A   Clear
9:15 AM 59.0 °F - 41.0 °F 51% 30.20 in 10.0 mi NNE 5.8 mph - N/A   Clear
9:35 AM 60.8 °F - 41.0 °F 48% 30.19 in 10.0 mi NNE 8.1 mph - N/A   Clear
9:55 AM 62.6 °F - 37.4 °F 39% 30.19 in 10.0 mi North 10.4 mph - N/A   Clear
10:15 AM 64.4 °F - 35.6 °F 34% 30.19 in 10.0 mi North 10.4 mph - N/A   Clear
10:35 AM 66.2 °F - 35.6 °F 32% 30.19 in 10.0 mi North 6.9 mph - N/A   Clear
10:55 AM 68.0 °F - 33.8 °F 28% 30.19 in 10.0 mi North 5.8 mph - N/A   Clear
11:15 AM 68.0 °F - 33.8 °F 28% 30.18 in 10.0 mi ENE 11.5 mph 17.3 mph N/A   Clear
11:35 AM 69.8 °F - 32.0 °F 25% 30.18 in 10.0 mi NNE 10.4 mph - N/A   Clear
11:55 AM 69.8 °F - 32.0 °F 25% 30.17 in 10.0 mi North 10.4 mph 16.1 mph N/A   Clear
12:15 PM 69.8 °F - 32.0 °F 25% 30.17 in 10.0 mi NNE 10.4 mph 16.1 mph N/A   Clear
12:35 PM 71.6 °F - 32.0 °F 23% 30.15 in 10.0 mi NE 8.1 mph 16.1 mph N/A   Clear
12:55 PM 71.6 °F - 33.8 °F 25% 30.15 in 10.0 mi North 13.8 mph 18.4 mph N/A   Clear
1:15 PM 71.6 °F - 33.8 °F 25% 30.13 in 10.0 mi North 10.4 mph 18.4 mph N/A   Clear
1:35 PM 71.6 °F - 35.6 °F 27% 30.13 in 10.0 mi North 9.2 mph - N/A   Clear
1:55 PM 71.6 °F - 35.6 °F 27% 30.12 in 10.0 mi NNW 12.7 mph 20.7 mph N/A   Clear
2:15 PM 71.6 °F - 35.6 °F 27% 30.12 in 10.0 mi North 11.5 mph 19.6 mph N/A   Clear
2:35 PM 71.6 °F - 37.4 °F 29% 30.11 in 10.0 mi North 12.7 mph 21.9 mph N/A   Clear
2:55 PM 71.6 °F - 37.4 °F 29% 30.11 in 10.0 mi NNE 8.1 mph 17.3 mph N/A   Clear
3:15 PM 71.6 °F - 37.4 °F 29% 30.11 in 10.0 mi North 11.5 mph 21.9 mph N/A   Clear
3:35 PM 71.6 °F - 35.6 °F 27% 30.12 in 10.0 mi North 9.2 mph 17.3 mph N/A   Clear
3:55 PM 71.6 °F - 35.6 °F 27% 30.12 in 10.0 mi NNE 6.9 mph 17.3 mph N/A   Clear
4:15 PM 69.8 °F - 35.6 °F 28% 30.12 in 10.0 mi NNE 6.9 mph 17.3 mph N/A   Clear
4:35 PM 69.8 °F - 35.6 °F 28% 30.13 in 10.0 mi North 5.8 mph - N/A   Clear
4:55 PM 68.0 °F - 35.6 °F 30% 30.13 in 10.0 mi North 10.4 mph - N/A   Clear
5:15 PM 68.0 °F - 35.6 °F 30% 30.14 in 10.0 mi NNE 4.6 mph - N/A   Clear
5:35 PM 64.4 °F - 35.6 °F 34% 30.14 in 10.0 mi Calm Calm - N/A   Clear
5:55 PM 62.6 °F - 37.4 °F 39% 30.15 in 10.0 mi Calm Calm - N/A   Clear
6:15 PM 59.0 °F - 39.2 °F 48% 30.15 in 10.0 mi Calm Calm - N/A   Clear
6:35 PM 55.4 °F - 41.0 °F 58% 30.16 in 10.0 mi Calm Calm - N/A   Clear
6:55 PM 55.4 °F - 39.2 °F 54% 30.17 in 10.0 mi Calm Calm - N/A   Clear
7:15 PM 51.8 °F - 41.0 °F 67% 30.17 in 10.0 mi Calm Calm - N/A   Clear
7:35 PM 51.8 °F - 37.4 °F 58% 30.18 in 10.0 mi Calm Calm - N/A   Clear
7:55 PM 50.0 °F - 37.4 °F 62% 30.19 in 10.0 mi Calm Calm - N/A   Clear
8:15 PM 48.2 °F - 37.4 °F 66% 30.19 in 10.0 mi Calm Calm - N/A   Clear
8:35 PM 46.4 °F - 37.4 °F 71% 30.20 in 10.0 mi Calm Calm - N/A   Clear
8:55 PM 46.4 °F - 37.4 °F 71% 30.20 in 10.0 mi Calm Calm - N/A   Clear
9:15 PM 44.6 °F - 37.4 °F 76% 30.21 in 10.0 mi Calm Calm - N/A   Clear
9:35 PM 44.6 °F - 37.4 °F 76% 30.21 in 10.0 mi Calm Calm - N/A   Clear
9:55 PM 44.6 °F - 37.4 °F 76% 30.21 in 10.0 mi Calm Calm - N/A   Clear
10:15 PM 42.8 °F - 37.4 °F 81% 30.21 in 10.0 mi Calm Calm - N/A   Clear
10:35 PM 42.8 °F - 37.4 °F 81% 30.21 in 10.0 mi Calm Calm - N/A   Clear
10:55 PM 41.0 °F - 37.4 °F 87% 30.21 in 10.0 mi Calm Calm - N/A   Clear
11:15 PM 41.0 °F - 37.4 °F 87% 30.21 in 10.0 mi Calm Calm - N/A   Clear
11:35 PM 39.2 °F - 37.4 °F 93% 30.20 in 10.0 mi Calm Calm - N/A   Clear
11:55 PM 39.2 °F - 37.4 °F 93% 30.19 in 10.0 mi Calm Calm - N/A   Clear